Details From OMRK - RAS AL KHAIMAH INTL
To VNKT - Kathmandu Tribhuvan Intl
Flight Number -
Tags decoded
Created
Modified
Stats Distance 1,612 nm / 2,986 km
Max Altitude 0 ft / 0 m
Waypoints 4
Social Downloads 0
Likes 0
Share VATSIM

Download

Looking for another format? Having issues loading an existing format? Contact us
Advertisement - Login to hide

Notes

Requested: OMRK DARAX TIGER VNKT

Route

OMRK DARAX TIGER VNKT

ID Type Via Altitude Latitude Longitude Leg Dist Tot Dist Heading (true) Name
O OMRK APT - 0 ft / 0 m 25.61335˚ 55.93883˚ - 0 nm - RAS AL KHAIMAH INTL
DARAX FIX - 0 ft / 0 m 26.16167˚ 55.88333˚ 33 nm 33 nm 355° / 355° -
TIGER FIX - 0 ft / 0 m 28.46694˚ 72.24944˚ 883 nm 916 nm 77° / 85° -
O VNKT APT - 0 ft / 0 m 27.69658˚ 85.35910˚ 695 nm 1612 nm 91° / 97° Kathmandu Tribhuvan Intl

Altitude Profile

Advertisement - Login to hide

Weather


0- 5 10 15 20 25 30 35+ Temperature / ° C

Clouds and Precipitation
Forecast for 2018-05-21 18:00 UTC. Updated 23 minutes ago

Ground ~20,000 ft ~40,000 ft Winds

OMRK

Details ICAO OMRK (RKT)
Name RAS AL KHAIMAH INTL
Region United Arab Emirates
Timezone Asia/Dubai (UTC+4.0)
Stats Elevation 102 ft / 31 m (AMSL)
Location 25.613352° 55.938831°
Runways 1
Magnetic Variation 2.074° E

METAR

OMRK 211700Z 03004KT CAVOK 31/10 Q1008 A2978

Decode

TAF

TAF OMRK 211100Z 2112/2218 34012KT CAVOK BECMG 2114/2116 10005KT BECMG 2207/2209 33010KT BECMG 2214/2216 VRB02KT

Decode

Departure Runways

ID Width Length Bearing (true) Bearing (mag) Surface Threshold Offset Overrun Length
16 148 ft / 45 m 12,391 ft / 3,777 m 164.83° 162.76° Asphalt 0 ft / 0 m 165 ft / 50 m
34 148 ft / 45 m 12,391 ft / 3,777 m 344.84° 342.77° Asphalt 0 ft / 0 m 165 ft / 50 m

VNKT

Details ICAO VNKT (KTM)
Name Kathmandu Tribhuvan Intl
Region Nepal
Timezone Asia/Kathmandu (UTC+5.8)
Stats Elevation 4,390 ft / 1,338 m (AMSL)
Location 27.696583° 85.359100°
Runways 1
Magnetic Variation 0.513° E

METAR

VNKT 211720Z 20004KT 170V230 6000 FEW015 SCT030 BKN100 22/19 Q1015 NOSIG

Decode

TAF

TAF TAF VNKT 211100Z 2112/2212 20006KT 7000 FEW015 SCT030 BKN100 PROB40 2112/2118 26010KT 4000 -TSRA FEW025CB BECMG 2114/2115 17003KT 6000 FEW015 SCT030 BKN100 BECMG 2200/2202 VRB02KT 3000 -RA/BR FEW010 SCT030 BKN100 PROB40 2201/2203 2000 BR BECMG 2204/2205 08004KT 6000 FEW015 SCT100 BECMG 2207/2208 24008KT 7000 FEW015 SCT030 BKN100 PROB40 2207/2212 25012KT 4000 TSRA FEW025CB

Decode

Destination Runways

ID Width Length Bearing (true) Bearing (mag) Surface Threshold Offset Overrun Length
02 148 ft / 45 m 10,017 ft / 3,053 m 21.50° 20.99° Asphalt 0 ft / 0 m 0 ft / 0 m
20 148 ft / 45 m 10,017 ft / 3,053 m 201.51° 201.00° Asphalt 400 ft / 122 m 0 ft / 0 m

Popular Alternatives